Tracking 19574 objects as of 15-Feb-2019
HD Live streaming from Space Station
objects crossing your sky now

INTELSAT 3-F7

Track INTELSAT 3-F7 now!
INTELSAT 3-F7 is classified as:


NORAD ID: 4376
Int'l Code: 1970-032A
Perigee: 35,779.1 km
Apogee: 35,829.6 km
Inclination: 4.3 °
Period: 1,436.6 minutes
Semi major axis: 42175 km
RCS: 0.003 m2 (small)
Launch date: April 23, 1970
Source: International Telecommunications Satellite Organization (ITSO)
Launch site: AIR FORCE EASTERN TEST RANGE (AFETR)
aabbcc
Your satellite tracking list
Your tracking list is empty




NASA's NSSDC Master Catalog

Two Line Element Set (TLE):
1  4376U 70032A   19045.03108410 -.00000311 +00000-0 +00000-0 0  9994
2  4376 004.3239 290.2954 0005984 010.0356 350.0378 01.00233937020483
Source of the keplerian elements: AFSPC